Estación de Rauco
Ultimos registro cada 15 minutos 32
| N° | Estación | Fecha / Hora | Temperatura | Humedad | Lluvia | Velocidad | Dirección | Radiación | Presion |
| 32 | Rauco | 07-05-2026 07:45 | 7,3 | 89 | 0 | 0 | 175 | 19 | 1026,4 |
| 31 | Rauco | 07-05-2026 07:30 | 7,6 | 89 | 0 | 0 | 175 | 5 | 1026,2 |
| 30 | Rauco | 07-05-2026 07:15 | 7,7 | 88 | 0 | 0 | 175 | 0 | 1026,4 |
| 29 | Rauco | 07-05-2026 07:00 | 7,8 | 88 | 0 | 0 | 175 | 0 | 1026,4 |
| 28 | Rauco | 07-05-2026 06:45 | 8 | 87 | 0 | 0 | 175 | 0 | 1026,2 |
| 27 | Rauco | 07-05-2026 06:30 | 8,3 | 86 | 0 | 0 | 175 | 0 | 1026,4 |
| 26 | Rauco | 07-05-2026 06:15 | 8,8 | 86 | 0 | 0 | 240 | 0 | 1026,1 |
| 25 | Rauco | 07-05-2026 06:00 | 9,2 | 85 | 0 | 0 | 251 | 0 | 1025,8 |
| 24 | Rauco | 07-05-2026 05:45 | 9,5 | 85 | 0 | 0 | 175 | 0 | 1025,7 |
| 23 | Rauco | 07-05-2026 05:30 | 9,7 | 86 | 0 | 0 | 175 | 0 | 1025,4 |
| 22 | Rauco | 07-05-2026 05:15 | 9,8 | 86 | 0 | 0 | 175 | 0 | 1025,3 |
| 21 | Rauco | 07-05-2026 05:00 | 9,8 | 86 | 0 | 0 | 175 | 0 | 1025,2 |
| 20 | Rauco | 07-05-2026 04:45 | 9,8 | 87 | 0 | 0 | 175 | 0 | 1025,1 |
| 19 | Rauco | 07-05-2026 04:30 | 9,9 | 87 | 0 | 0 | 175 | 0 | 1024,7 |
| 18 | Rauco | 07-05-2026 04:15 | 9,9 | 86 | 0 | 0 | 175 | 0 | 1024,7 |
| 17 | Rauco | 07-05-2026 04:00 | 10 | 86 | 0 | 0 | 175 | 0 | 1024,7 |
| 16 | Rauco | 07-05-2026 03:45 | 10,1 | 85 | 0 | 0 | 175 | 0 | 1024,5 |
| 15 | Rauco | 07-05-2026 03:30 | 10,1 | 85 | 0 | 0 | 175 | 0 | 1024,5 |
| 14 | Rauco | 07-05-2026 03:15 | 10,1 | 86 | 0 | 0 | 175 | 0 | 1024,4 |
| 13 | Rauco | 07-05-2026 03:00 | 10,2 | 85 | 0 | 0 | 175 | 0 | 1024,5 |
| 12 | Rauco | 07-05-2026 02:45 | 10,3 | 85 | 0 | 0 | 175 | 0 | 1024,6 |
| 11 | Rauco | 07-05-2026 02:30 | 10,3 | 85 | 0 | 0 | 175 | 0 | 1024,5 |
| 10 | Rauco | 07-05-2026 02:15 | 10,3 | 85 | 0 | 0 | 175 | 0 | 1024,7 |
| 9 | Rauco | 07-05-2026 02:00 | 10,4 | 86 | 0 | 0 | 175 | 0 | 1024,3 |
| 8 | Rauco | 07-05-2026 01:45 | 10,4 | 85 | 0 | 0 | 175 | 0 | 1024,1 |
| 7 | Rauco | 07-05-2026 01:30 | 10,4 | 85 | 0 | 0 | 175 | 0 | 1023,7 |
| 6 | Rauco | 07-05-2026 01:15 | 10,6 | 85 | 0 | 0 | 175 | 0 | 1023,4 |
| 5 | Rauco | 07-05-2026 01:00 | 10,7 | 84 | 0 | 0 | 249 | 0 | 1023,4 |
| 4 | Rauco | 07-05-2026 00:45 | 10,8 | 84 | 0 | 0 | 252 | 0 | 1023,3 |
| 3 | Rauco | 07-05-2026 00:30 | 10,8 | 85 | 0 | 0 | 175 | 0 | 1023,4 |
| 2 | Rauco | 07-05-2026 00:15 | 10,9 | 85 | 0 | 0 | 175 | 0 | 1023,3 |
| 1 | Rauco | 07-05-2026 00:00 | 11,1 | 84 | 0 | 0 | 295 | 0 | 1023,1 |